Regional Weather Roundup
Issued by NWS

Home | Current Version | Previous Version | Text Only | Print | Product List | Glossary On
Versions: 1 2 3 4 5 6 7 8 9 10 11 12 13 14 15 16 17 18 19 20 21 22 23 24 25 26 27 28 29 30 31 32 33 34 35 36 37 38 39 40 41 42 43 44 45 46 47 48 49 50
000
ASUS43 KDMX 270306
RWRIA

WEATHER ROUNDUP FOR IOWA
NATIONAL WEATHER SERVICE DES MOINES IA
1000 PM CDT FRI MAY 26 2017

NOTE: "FAIR" INDICATES FEW OR NO CLOUDS BELOW 12,000 FEET WITH NO
SIGNIFICANT WEATHER AND/OR OBSTRUCTIONS TO VISIBILITY.

* - THESE STATIONS ARE NOT NWS STATIONS...THUS NOT UNDER NWS
QUALITY CONTROL.  THEY ALSO DO NOT REPORT WEATHER SUCH
AS PRECIPITATION OR FOG.

IAZ001>003-012>014-020>022-031>034-043>046-270400-
   NORTHWEST IOWA

CITY           SKY/WX    TMP DP  RH WIND       PRES   REMARKS
CARROLL *      CLEAR     66  48  52 NW8       29.85R
CHEROKEE *     CLEAR     63  43  48 NW3       29.87R
DENISON *      CLEAR     64  46  52 NW7       29.88R
LE MARS *      CLOUDY    61  50  67 CALM      29.90R
ORANGE CITY *  CLOUDY    64  45  48 NW5       29.89R
SHELDON *      CLEAR     63  41  45 W5        29.87R
SIOUX CITY     CLEAR     62  46  55 NW6       29.88R
SPENCER        CLEAR     57  46  66 W9        29.87R
STORM LAKE *   CLEAR     66  45  45 NW9       29.87R
$$

IAZ055>058-069>071-079>083-090>094-270400-
   SOUTHWEST IOWA

CITY           SKY/WX    TMP DP  RH WIND       PRES   REMARKS
ATLANTIC *     CLEAR     64  50  59 N5        29.86R
AUDUBON *      CLEAR     61  54  77 CALM      29.87R
CLARINDA *     PTCLDY    70  54  56 NE3       29.86R
COUNCIL BLFS * CLEAR     68  50  52 N3        29.87R
CRESTON *      CLEAR     72  52  49 N6        29.86R
HARLAN  *      CLEAR     66  50  55 CALM      29.90R
LAMONI         PTCLDY    73  61  65 CALM      29.84R
RED OAK *      CLEAR     64  50  59 N5        29.85R
SHENANDOAH *   CLEAR     70  52  52 N6        29.85R
$$

IAZ047>049-059>061-072>074-084-270400-
   CENTRAL IOWA

CITY           SKY/WX    TMP DP  RH WIND       PRES   REMARKS
AMES           PTCLDY    67  62  84 SE6       29.83R
ANKENY *       PTCLDY    68  63  83 SE6       29.85R
BOONE *        CLEAR     68  61  77 SE10      29.83R
CHARITON *     CLEAR     66  63  88 E5        29.84R
DES MOINES     PTCLDY    71  63  75 SE7       29.83R
GRINNELL*      PTCLDY    62  59  89 SE5       29.86R
KNOXVILLE *    CLEAR     66  63  88 E6        29.83R
MARSHALLTOWN   CLOUDY    63  60  90 SE6       29.84R
NEWTON *       MOCLDY    64  61  88 SE5       29.84R
PELLA *        PTCLDY    65  61  86 SE3       29.86R
PERRY *          N/A     71  47  42 CALM      29.83R
$$

IAZ004>006-015-016-023>025-035-036-270400-
   NORTH CENTRAL IOWA

CITY           SKY/WX    TMP DP  RH WIND       PRES   REMARKS
ALGONA *       CLEAR     66  46  48 NW6       29.85R
CLARION *      CLEAR     68  48  49 NW10      29.83R
ESTHERVILLE    CLEAR     59  50  72 W8        29.85R
FORT DODGE *   CLEAR     68  46  45 NW5       29.85R
MASON CITY     CLEAR     65  58  78 S6        29.85R
FOREST CITY *    N/A     64  37  36 NW7       29.84R
WEBSTER CITY * CLEAR     68  48  49 W9        29.82R
IOWA FALLS *     N/A     66  60  82 SE8       29.85R
$$

IAZ007>011-017>019-026>030-037>042-050>054-066-270400-
   NORTHEAST IOWA

CITY           SKY/WX    TMP DP  RH WIND       PRES   REMARKS
CEDAR RAPIDS   CLEAR     60  60 100 E6        29.84R
CHARLES CITY * PTCLDY    63  61  94 S10       29.84R
CLINTON *      PTCLDY    59  58  96 E7        29.86R
DECORAH *      PTCLDY    61  57  88 VRB6      29.83R
DUBUQUE        CLEAR     59  56  89 E7        29.86R
MONTICELLO *   CLEAR     59  57  94 NW5       29.86R
OELWEIN *      PTCLDY    61  59  94 SE6       29.85R
WATERLOO       PTCLDY    61  57  87 SE5       29.83R
$$

IAZ064-065-067-068-078-270400-
   EAST CENTRAL IOWA

CITY           SKY/WX    TMP DP  RH WIND       PRES   REMARKS
DAVENPORT      MOCLDY    62  59  90 NE9       29.85R
IOWA CITY      CLEAR     63  60  90 CALM      29.86R
MT. PLEASANT * CLEAR     63  59  87 CALM      29.86R
MUSCATINE *    CLEAR     63  61  94 NE6       29.85R
QUAD CITIES    CLOUDY    65  60  84 NE8       29.84R
$$

IAZ062-063-075>077-085>089-095>099-270400-
   SOUTHEAST IOWA

CITY           SKY/WX    TMP DP  RH WIND       PRES   REMARKS
BURLINGTON     CLEAR     64  61  90 N5        29.84R
FAIRFIELD *    CLEAR     63  59  88 CALM      29.85R
FORT MADISON * CLEAR     63  61  94 N3        29.86R
KEOKUK *       CLEAR     64  61  88 N3        29.84R
OSKALOOSA *      N/A     63  60  91 E6        29.86R
CENTERVILLE *    N/A     64  61  88 CALM      29.86R
OTTUMWA        CLEAR     65  62  90 E7        29.85R
WASHINGTON *   CLEAR     61  61 100 CALM      29.86R FOG
$$

ABBREVIATIONS USED IN REMARKS
   TC - TEMPERATURES IN CELSIUS
  WCI - WIND CHILL INDEX
   HX - HEAT INDEX
  VSB - VISIBILITY
$$




USA.gov is the U.S. government's official web portal to all federal, state and local government web resources and services.